TIV750 KRDU-KDCA

Flight info

Callsign TIV750
Flight time 0h 37m
Altitude 31000
Route BEXGO5 BOUSY WAVES CAPSS4
Aircraft C750/M-SBDE3FGHRWXY/S

Departure

Time 2026-04-23 15:10
Airport Raleigh-Durham International Airport (KRDU)

Arrival

Time 2026-04-23 15:48
Airport Ronald Reagan Washington National Airport (KDCA)
Time Latitude Longitude Altitude Speed Heading
2026-04-23 15:01 35.88078 -78.78316 431 ft 0 kts 225°
2026-04-23 15:07 35.88072 -78.78314 427 ft 3 kts 165°
2026-04-23 15:07 35.88014 -78.78268 423 ft 16 kts 126°
2026-04-23 15:08 35.87964 -78.78191 423 ft 7 kts 94°
2026-04-23 15:08 35.87991 -78.78145 431 ft 7 kts 43°
2026-04-23 15:08 35.88007 -78.78093 431 ft 6 kts 103°
2026-04-23 15:09 35.87970 -78.78022 432 ft 7 kts 125°
2026-04-23 15:09 35.87941 -78.77985 434 ft 4 kts 136°
2026-04-23 15:09 35.87910 -78.77964 434 ft 5 kts 187°
2026-04-23 15:09 35.87860 -78.78009 433 ft 15 kts 225°
2026-04-23 15:10 35.87746 -78.78151 431 ft 68 kts 223°
2026-04-23 15:10 35.86906 -78.79191 625 ft 159 kts 227°
2026-04-23 15:10 35.86060 -78.80172 1346 ft 173 kts 225°
2026-04-23 15:10 35.85228 -78.81274 2006 ft 180 kts 244°
2026-04-23 15:11 35.85249 -78.82770 2695 ft 182 kts 299°
2026-04-23 15:11 35.86027 -78.83977 3714 ft 178 kts 312°
2026-04-23 15:11 35.86970 -78.84918 4581 ft 182 kts 341°
2026-04-23 15:11 35.88309 -78.84907 5054 ft 209 kts 11°
2026-04-23 15:12 35.89677 -78.83991 5516 ft 240 kts 35°
2026-04-23 15:12 35.91023 -78.82627 6101 ft 262 kts 37°
2026-04-23 15:12 35.92459 -78.81124 6834 ft 276 kts 38°
2026-04-23 15:12 35.93916 -78.79578 7910 ft 277 kts 38°
2026-04-23 15:13 35.95395 -78.78027 8977 ft 282 kts 37°
2026-04-23 15:13 35.96905 -78.76451 10010 ft 286 kts 36°
2026-04-23 15:13 35.98468 -78.74815 10489 ft 306 kts 37°
2026-04-23 15:13 36.00161 -78.73040 10659 ft 334 kts 37°
2026-04-23 15:14 36.01994 -78.71109 10896 ft 354 kts 38°
2026-04-23 15:14 36.03871 -78.69127 11722 ft 355 kts 38°
2026-04-23 15:14 36.05763 -78.67135 12441 ft 359 kts 38°
2026-04-23 15:14 36.07678 -78.65125 13186 ft 363 kts 38°
2026-04-23 15:15 36.09586 -78.63114 13892 ft 367 kts 39°
2026-04-23 15:15 36.11538 -78.61054 14547 ft 370 kts 39°
2026-04-23 15:15 36.13503 -78.58980 15216 ft 373 kts 39°
2026-04-23 15:15 36.15486 -78.56888 15899 ft 375 kts 39°
2026-04-23 15:16 36.17476 -78.54785 16588 ft 378 kts 39°
2026-04-23 15:16 36.19484 -78.52663 17301 ft 381 kts 39°
2026-04-23 15:16 36.21509 -78.50520 17976 ft 385 kts 38°
2026-04-23 15:16 36.23556 -78.48354 18661 ft 389 kts 38°
2026-04-23 15:17 36.25622 -78.46166 19315 ft 392 kts 38°
2026-04-23 15:17 36.27700 -78.43961 19971 ft 395 kts 38°
2026-04-23 15:17 36.29796 -78.41736 20647 ft 398 kts 38°
2026-04-23 15:17 36.31909 -78.39494 21315 ft 402 kts 38°
2026-04-23 15:18 36.34043 -78.37229 21970 ft 406 kts 38°
2026-04-23 15:18 36.36192 -78.34943 22635 ft 409 kts 38°
2026-04-23 15:18 36.38363 -78.32632 23283 ft 413 kts 38°
2026-04-23 15:18 36.40552 -78.30301 23881 ft 416 kts 38°
2026-04-23 15:19 36.42758 -78.27951 24408 ft 420 kts 38°
2026-04-23 15:19 36.44984 -78.25577 24937 ft 423 kts 38°
2026-04-23 15:19 36.47225 -78.23184 25475 ft 426 kts 38°
2026-04-23 15:19 36.49481 -78.20773 26001 ft 429 kts 38°
2026-04-23 15:20 36.51020 -78.19234 26316 ft 430 kts 34°
2026-04-23 15:20 36.54234 -78.16238 27030 ft 433 kts 34°
2026-04-23 15:20 36.56647 -78.13973 27599 ft 436 kts 34°
2026-04-23 15:20 36.59068 -78.11672 28126 ft 440 kts 34°
2026-04-23 15:21 36.61509 -78.09358 28647 ft 443 kts 34°
2026-04-23 15:21 36.63973 -78.07037 29163 ft 446 kts 34°
2026-04-23 15:21 36.66455 -78.04697 29638 ft 450 kts 34°
2026-04-23 15:21 36.68952 -78.02329 30142 ft 453 kts 34°
2026-04-23 15:22 36.70615 -78.00750 30427 ft 455 kts 34°
2026-04-23 15:22 36.73135 -77.98360 30868 ft 451 kts 34°
2026-04-23 15:22 36.75626 -77.95997 31140 ft 454 kts 34°
2026-04-23 15:22 36.78177 -77.93581 31143 ft 467 kts 34°
2026-04-23 15:23 36.80812 -77.91127 31129 ft 477 kts 32°
2026-04-23 15:23 36.86778 -77.87240 31088 ft 493 kts 22°
2026-04-23 15:24 36.93045 -77.83564 31094 ft 501 kts 22°
2026-04-23 15:24 36.99367 -77.79864 31090 ft 502 kts 22°
2026-04-23 15:25 37.05661 -77.76173 31087 ft 503 kts 22°
2026-04-23 15:25 37.08799 -77.74324 30891 ft 486 kts 22°
2026-04-23 15:25 37.11770 -77.72573 30293 ft 459 kts 22°
2026-04-23 15:25 37.14624 -77.70899 29692 ft 448 kts 22°
2026-04-23 15:26 37.17434 -77.69252 29173 ft 444 kts 22°
2026-04-23 15:26 37.20219 -77.67609 28663 ft 441 kts 22°
2026-04-23 15:26 37.22985 -77.65974 28165 ft 438 kts 22°
2026-04-23 15:26 37.25729 -77.64353 27663 ft 434 kts 22°
2026-04-23 15:27 37.28453 -77.62746 27168 ft 431 kts 22°
2026-04-23 15:27 37.31160 -77.61145 26679 ft 428 kts 22°
2026-04-23 15:27 37.33849 -77.59553 26176 ft 425 kts 22°
2026-04-23 15:27 37.36512 -77.57975 25708 ft 421 kts 22°
2026-04-23 15:28 37.39155 -77.56408 25222 ft 419 kts 22°
2026-04-23 15:28 37.41785 -77.54849 24743 ft 416 kts 22°
2026-04-23 15:28 37.44396 -77.53299 24272 ft 414 kts 23°
2026-04-23 15:28 37.46990 -77.51758 23803 ft 411 kts 23°
2026-04-23 15:29 37.49566 -77.50225 23287 ft 408 kts 23°
2026-04-23 15:29 37.52130 -77.48699 22810 ft 406 kts 23°
2026-04-23 15:29 37.54647 -77.47200 22329 ft 390 kts 23°
2026-04-23 15:29 37.57049 -77.45766 21852 ft 377 kts 23°
2026-04-23 15:30 37.59459 -77.44538 21396 ft 371 kts 14°
2026-04-23 15:30 37.61959 -77.43790 21000 ft 368 kts 11°
2026-04-23 15:30 37.64440 -77.43035 20595 ft 366 kts 12°
2026-04-23 15:30 37.66903 -77.42256 20183 ft 364 kts 12°
2026-04-23 15:31 37.69325 -77.41502 19778 ft 362 kts 12°
2026-04-23 15:31 37.71768 -77.40757 19371 ft 361 kts 12°
2026-04-23 15:31 37.74202 -77.40012 18960 ft 359 kts 12°
2026-04-23 15:31 37.76622 -77.39261 18564 ft 357 kts 12°
2026-04-23 15:32 37.79031 -77.38514 18136 ft 355 kts 12°
2026-04-23 15:32 37.81428 -77.37773 17726 ft 354 kts 12°
2026-04-23 15:32 37.83814 -77.37037 17327 ft 352 kts 12°
2026-04-23 15:32 37.86191 -77.36301 16929 ft 350 kts 12°
2026-04-23 15:33 37.88551 -77.35569 16538 ft 349 kts 12°
2026-04-23 15:33 37.90902 -77.34840 16148 ft 347 kts 12°
2026-04-23 15:33 37.93242 -77.34122 15761 ft 345 kts 11°
2026-04-23 15:33 37.95575 -77.33408 15372 ft 344 kts 11°
2026-04-23 15:34 37.97890 -77.32694 14980 ft 342 kts 11°
2026-04-23 15:34 38.00197 -77.31982 14597 ft 340 kts 11°
2026-04-23 15:34 38.02489 -77.31275 14221 ft 339 kts 11°
2026-04-23 15:34 38.04776 -77.30570 13837 ft 337 kts 11°
2026-04-23 15:35 38.07049 -77.29870 13438 ft 335 kts 11°
2026-04-23 15:35 38.09311 -77.29166 13059 ft 333 kts 11°
2026-04-23 15:35 38.11561 -77.28454 12687 ft 332 kts 11°
2026-04-23 15:35 38.13799 -77.27749 12317 ft 331 kts 11°
2026-04-23 15:36 38.16002 -77.27060 11954 ft 330 kts 10°
2026-04-23 15:36 38.18227 -77.26361 11567 ft 329 kts 10°
2026-04-23 15:36 38.20440 -77.25663 11180 ft 328 kts 10°
2026-04-23 15:36 38.22646 -77.24965 10809 ft 326 kts 10°
2026-04-23 15:37 38.24832 -77.24268 10446 ft 318 kts 10°
2026-04-23 15:37 38.26909 -77.23603 10098 ft 299 kts 10°
2026-04-23 15:37 38.28904 -77.22971 9756 ft 293 kts 10°
2026-04-23 15:37 38.30853 -77.22355 9423 ft 285 kts
2026-04-23 15:38 38.32759 -77.21736 9114 ft 282 kts 11°
2026-04-23 15:38 38.34503 -77.20550 8749 ft 290 kts 34°
2026-04-23 15:38 38.36008 -77.18851 8482 ft 289 kts 38°
2026-04-23 15:38 38.37502 -77.17147 8185 ft 287 kts 37°
2026-04-23 15:39 38.38995 -77.15472 7864 ft 285 kts 37°
2026-04-23 15:39 38.40474 -77.13813 7546 ft 283 kts 38°
2026-04-23 15:39 38.41941 -77.12158 7235 ft 279 kts 38°
2026-04-23 15:39 38.43389 -77.10521 6918 ft 277 kts 38°
2026-04-23 15:40 38.44831 -77.08894 6608 ft 276 kts 38°
2026-04-23 15:40 38.46254 -77.07286 6292 ft 272 kts 38°
2026-04-23 15:40 38.47671 -77.05684 5982 ft 270 kts 38°
2026-04-23 15:40 38.49081 -77.04090 5679 ft 270 kts 38°
2026-04-23 15:41 38.50483 -77.02507 5378 ft 268 kts 37°
2026-04-23 15:41 38.52046 -77.01320 5026 ft 260 kts 15°
2026-04-23 15:41 38.53812 -77.01057 4760 ft 253 kts 356°
2026-04-23 15:41 38.55573 -77.01191 4508 ft 254 kts 354°
2026-04-23 15:42 38.57338 -77.01321 4233 ft 253 kts 355°
2026-04-23 15:42 38.59098 -77.01437 3946 ft 254 kts 354°
2026-04-23 15:42 38.60847 -77.01556 3660 ft 250 kts 355°
2026-04-23 15:42 38.62587 -77.01678 3380 ft 250 kts 354°
2026-04-23 15:43 38.64325 -77.01800 3091 ft 251 kts 355°
2026-04-23 15:43 38.66045 -77.01918 2814 ft 240 kts 355°
2026-04-23 15:43 38.67628 -77.02025 2530 ft 216 kts 355°
2026-04-23 15:43 38.68993 -77.02181 2385 ft 178 kts 353°
2026-04-23 15:44 38.70155 -77.02285 2408 ft 160 kts 354°
2026-04-23 15:44 38.71274 -77.02379 2464 ft 159 kts 353°
2026-04-23 15:44 38.72375 -77.02488 2479 ft 158 kts 352°
2026-04-23 15:44 38.73467 -77.02599 2312 ft 161 kts 353°
2026-04-23 15:45 38.74545 -77.02707 2026 ft 150 kts 352°
2026-04-23 15:45 38.75561 -77.02807 1738 ft 145 kts 352°
2026-04-23 15:45 38.76557 -77.02907 1507 ft 140 kts 353°
2026-04-23 15:45 38.77551 -77.03006 1332 ft 144 kts 352°
2026-04-23 15:46 38.78542 -77.03106 1145 ft 143 kts 352°
2026-04-23 15:46 38.79485 -77.03199 968 ft 135 kts 352°
2026-04-23 15:46 38.80403 -77.03292 788 ft 129 kts 353°
2026-04-23 15:46 38.81313 -77.03384 629 ft 131 kts 354°
2026-04-23 15:47 38.82244 -77.03476 466 ft 139 kts 352°
2026-04-23 15:47 38.83189 -77.03572 248 ft 134 kts 352°
2026-04-23 15:47 38.84100 -77.03670 66 ft 128 kts 351°
2026-04-23 15:47 38.84908 -77.03754 25 ft 103 kts 353°
2026-04-23 15:48 38.85395 -77.03800 20 ft 30 kts 356°
2026-04-23 15:48 38.85421 -77.03803 21 ft 0 kts 356°